Погода в Кулябе

Таджикистан     37°54′59″N   69°47′34″E
темп.,
°C
ветер,
м/с
пор.,
м/с
влажн.,
%
обл.,
%
осадки,
мм/ч
давл.,
гПа
погр.,
м
21 июня, пн
пн2123:00+21ссв573344 0.0 100889
02:00+19всв22313 0.0 100925
05:00+18ссв33320 0.0 101024
08:00+27ю12170 0.0 1011633
11:00+31ююз44140 0.0 10101724
14:00+33ююз43140 0.0 10082920
17:00+33ююз54130 0.0 10063658
20:00+25ююз122219 0.0 100811
22 июня, вт
вт2223:00+24св222336 0.0 101032
02:00+21св33295 0.0 101036
05:00+19св33295 0.0 101131
08:00+28с01180 0.0 1011503
11:00+33юз43100 0.0 10091992
14:00+35ююз43100 0.0 10073579
17:00+35ююз54110 0.0 10053678
20:00+26ююз12160 0.0 100711
23 июня, ср
ср2323:00+23св33200 0.0 100926
02:00+22св44220 0.0 100940
05:00+21св44230 0.0 100937
08:00+30ссв11145 0.0 1009464
11:00+35юз5390 0.0 10082965
14:00+37ююз5380 0.0 10073844
17:00+36юз5390 0.0 10053837
20:00+26ююз01160 0.0 100711
24 июня, чт
чт2423:00+23св44200 0.0 100937
02:00+22св44220 0.0 100944
05:00+21св33230 0.0 100931
08:00+29ююз01150 0.0 1009442
11:00+35юз4490 0.0 10082463
14:00+37юз5370 0.0 10053847
17:00+36зюз6480 0.0 10043711
20:00+26зюз12130 0.0 100511
25 июня, пт
пт2523:00+24св33160 0.0 100725
02:00+22св33170 0.0 100721
05:00+20св33180 0.0 100726
08:00+29ююз01120 0.0 1007456
11:00+34юз4380 0.0 10062553
14:00+36юз5370 0.0 10043772
17:00+35зюз5380 0.0 10023642
20:00+26юз11150 0.0 100311